Location: Newark
(44.2003°N, 3.2583°E)
Time: 16:58:19
(UTC+00:00)

SR - Pass Details

Date: 22 October 2019
Orbit: 574 x 882 km, 66.7° (Epoch: 16 November)

Event Time Altitude Azimuth Distance (km) Brightness Sun altitude
Rises 19:57:38 0° 166° (SSE) 3,020 - -33.6°
Reaches altitude 10° 20:00:28 10° 148° (SSE) 2,170 - -34.1°
Maximum altitude 20:03:51 19° 105° (ESE) 1,730 - -34.7°
Drops below altitude 10° 20:07:26 10° 62° (ENE) 2,323 - -35.3°
Sets 20:10:36 0° 45° (NE) 3,318 - -35.8°
